This demonstration page uses our WeatherBlox Daily Observations layout. Learn more.

Left ArrowRight Arrow

Hourly Observations for December 18, 2015

Temp ( °F °C ) Dew Point ( °F °C ) Humidity (%) Winds ( mph kmh ) Pressure ( in mb ) Visibility ( mi km ) Precip ( " mm )
12:09 am 00:09 Mostly Cloudy 48 8.9 44 6.7 86 86 WNW 5 7 29.94 1014 10 16 0.00 0.00
12:53 am 00:53 Cloudy 48 8.9 44 6.7 86 86 WNW 7 11 29.89 1012 10 16 0.00 0.00
1:27 am 01:27 Cloudy 48 8.9 43 6.1 83 83 WNW 7 11 29.94 1014 10 16 0.00 0.00
1:53 am 01:53 Cloudy 48 8.9 42 5.6 80 80 NW 9 15 29.91 1013 10 16 0.00 0.00
2:19 am 02:19 Partly Cloudy 47 8.3 39 3.9 74 74 VRB 7 11 29.94 1014 10 16 0.00 0.00
2:53 am 02:53 Clear 45 7.2 39 3.9 80 80 WNW 6 9 29.91 1013 10 16 0.00 0.00
3:53 am 03:53 Clear 43 6.1 38 3.3 82 82 NW 7 11 29.93 1014 10 16 0.00 0.00
4:53 am 04:53 Clear 42 5.6 35 1.7 76 76 NW 7 11 29.95 1014 10 16 0.00 0.00
5:53 am 05:53 Clear 41 5 33 0.6 73 73 NW 6 9 29.97 1015 10 16 0.00 0.00
6:53 am 06:53 Clear 40 4.4 32 0 73 73 WNW 7 11 30.00 1016 10 16 0.00 0.00
7:53 am 07:53 Sunny with Light Snow 38 3.3 32 0 79 79 NW 9 15 30.03 1017 10 16 0.00 0.03
8:53 am 08:53 Sunny with Light Snow 39 3.9 32 0 76 76 WNW 9 15 30.08 1019 9 14 0.00 0.03
9:53 am 09:53 Partly Cloudy 40 4.4 32 0 73 73 WNW 13 20 30.12 1020 10 16 0.00 0.03
10:53 am 10:53 Sunny 43 6.1 31 -0.6 63 63 NW 12 19 30.14 1021 10 16 0.00 0.00
11:53 am 11:53 Sunny 46 7.8 29 -1.7 51 51 WNW 12 19 30.13 1020 10 16 0.00 0.00
12:53 pm 12:53 Sunny with Light Rain 47 8.3 29 -1.7 50 50 NW 17 28 30.13 1020 10 16 0.00 0.03
1:53 pm 13:53 Sunny with Light Rain 47 8.3 28 -2.2 48 48 WNW 20 31 30.13 1020 10 16 0.00 0.03
2:53 pm 14:53 Sunny 46 7.8 27 -2.8 47 47 WNW 14 22 30.14 1021 10 16 0.00 0.03
3:53 pm 15:53 Sunny 45 7.2 26 -3.3 48 48 NW 15 24 30.16 1021 10 16 0.00 0.00
4:53 pm 16:53 Sunny 43 6.1 24 -4.4 47 47 WNW 15 24 30.20 1023 10 16 0.00 0.00
5:53 pm 17:53 Clear 40 4.4 24 -4.4 53 53 NW 15 24 30.24 1024 10 16 0.00 0.00
6:53 pm 18:53 Clear 38 3.3 24 -4.4 57 57 WNW 10 17 30.27 1025 10 16 0.00 0.00
7:53 pm 19:53 Clear 37 2.8 23 -5 57 57 NNW 8 13 30.29 1026 10 16 0.00 0.00
8:53 pm 20:53 Clear 36 2.2 23 -5 59 59 NW 7 11 30.31 1027 10 16 0.00 0.00
9:53 pm 21:53 Clear 33 0.6 23 -5 66 66 NW 7 11 30.32 1027 10 16 0.00 0.00
10:53 pm 22:53 Clear 34 1.1 23 -5 64 64 N 5 7 30.33 1027 10 16 0.00 0.00
11:53 pm 23:53 Clear 33 0.6 22 -5.6 64 64 WNW 3 6 30.35 1028 10 16 0.00 0.00

Powered by AerisWeather